User: anonymous   Login
Location: Nitra
(0.0000°N, 18.0833°E)
Time: 00:18:50
(UTC+02:00)
Language:

YUBILEINY - Orbit

View from above orbital plane
View from above orbital plane
View from above satellite
View from above satellite

Ground track
Ground track

The orbit data is extracted from the following two-line orbital elements,

1 32953U 08025A   24110.48177727  .00000061  00000-0  36629-3 0  9994
2 32953  82.4986 126.0050 0018380 230.4173 129.5284 12.43139006721836
Epoch (UTC): 19 April 2024 11:33:45
Eccentricity: 0.0018380
inclination: 82.4986°
perigee height: 1479 km
apogee height: 1508 km
right ascension of ascending node: 126.0050°
argument of perigee: 230.4173°
revolutions per day: 12.43139006
mean anomaly at epoch: 129.5284°
orbit number at epoch: 72183

The dashed part of the orbit path shows where the satellite is in the earth's shadow,  

DLR